Regional Weather Roundup
Issued by NWS Wakefield, VA

Home | Current Version | Previous Version | Text Only | Print | Product List | Glossary On
Versions: 1 2 3 4 5 6 7 8 9 10 11 12 13 14 15 16 17 18 19 20 21 22 23 24 25 26 27 28 29 30 31 32 33 34 35 36 37 38 39 40 41 42 43 44 45 46 47 48 49 50
000
ASUS41 KAKQ 261415
RWRAKQ

REGIONAL WEATHER ROUNDUP
NATIONAL WEATHER SERVICE WAKEFIELD VA
1000 AM EDT THU APR 26 2018

Note: "fair" indicates few or no clouds below 12,000 feet with no
significant weather and/or obstructions to visibility. * = Denotes
station may not report precipitation (e.g., rain,snow,etc.),
thunder or fog.

VAZ042-051-052>054-056-261500-
NORTHERN VIRGINIA

CITY           SKY/WX    TMP DP  RH WIND       PRES   REMARKS
WASH NATIONAL  PTSUNNY   58  38  47 NW10      29.89R
DULLES         PTSUNNY   55  39  54 NW17      29.88R
FORT BELVOIR   FAIR      57  37  47 W16       29.88F
QUANTICO       PTSUNNY   58  40  51 NW12      29.90S
FREDERICKSBRG* FAIR      60  39  47 NW10G17   29.88F
STAFFORD*      FAIR      58  40  50 NW16G22   29.92F
WARRENTON      FAIR      60  36  41 NW10      29.89F
CULPEPER*      FAIR      58  37  44 NW6       29.91S
MANASSAS*      FAIR      57  40  52 NW10      29.90F
LEESBURG*      FAIR      55  43  62 W16       29.90S
WINCHESTER     FAIR      52  36  54 W13       29.92S
FRONT ROYAL*   FAIR      55  36  47 NW3       29.89S
LURAY*         FAIR      55  37  50 W3        29.91S
$$

VAZ048-049-060>072-079>083-261500-
CENTRAL AND SOUTH CENTRAL VIRGINIA

CITY           SKY/WX    TMP DP  RH WIND       PRES   REMARKS
RICHMOND       CLOUDY    61  41  47 N8        29.89S
CHESTERFIELD*  FAIR      60  40  47 NW9       29.90S
PETERSBURG*    FAIR      60  39  46 N7        29.90S
HANOVER        FAIR      60  40  47 N7        29.90S
TAPPAHANNOCK*  FAIR      58  40  51 NW7       29.90R
QUINTON*       FAIR      58  41  52 NW10G17   29.89R
CHARLOTTSVILLE FAIR      61  36  39 VRB7      29.88S
GORDONSVILLE*  FAIR      58  38  47 NW5       29.89S
ORANGE*        FAIR      59  37  44 CALM      29.89S
LOUISA*        FAIR      60  39  45 N8        29.93S
BUMPASS*       NOT AVBL
FARMVILLE*     FAIR      60  53  79 CALM      29.88F
CREWE*         FAIR      59  43  56 NE3       29.89F
FORT PICKETT*  FAIR      59  43  55 N6        29.90S
CHASE CITY*    FAIR      61  49  65 CALM      29.89S
CLARKSVILLE*   FAIR      61  52  72 N3        29.89S
SOUTH HILL*    FAIR      61  49  65 CALM      29.95S
LAWRENCEVILLE* FAIR      62  45  54 NE6       29.89F
EMPORIA*       FAIR      61  52  72 N6        29.91S
$$

VAZ088>098-261500-
SOUTHEAST VIRGINIA

CITY           SKY/WX    TMP DP  RH WIND       PRES   REMARKS
NORFOLK        CLOUDY    59  47  64 N8        29.89R
VIRGINIA BEACH CLOUDY    59  48  67 NW12      29.88R
NORFOLK NAVAL  PTSUNNY   60  45  57 N7        29.90R
WEST POINT*    FAIR      59  43  55 N5        29.90S
SALUDA*        FAIR      57  42  57 NW8       29.88S
NEWPORT NEWS   CLOUDY    60  41  49 NW8       29.89S
LANGLEY AFB    PTSUNNY   59  43  56 N9        29.89S
FORT EUSTIS    PTSUNNY   59  44  56 N5        29.87S
WILLIAMSBURG*  FAIR      61  41  48 NW8       29.90S
HR EXEC AP*    CLOUDY    59  48  67 VRB3      29.90S
FRANKLIN*      FAIR      60  50  69 N5        29.90S
US460-WAKEFLD  FAIR      62  47  57 VRB5      29.90R
$$

VAZ020-022-025-037-045-261500-
WEST CENTRAL AND SOUTHWEST VIRGINIA

CITY           SKY/WX    TMP DP  RH WIND       PRES   REMARKS
STAUNTON*      FAIR      54  38  56 CALM      29.93S
WAYNESBORO*    FAIR      55  38  52 CALM      29.91S
HOT SPRINGS VA FAIR      45  37  74 NW9       29.91S
LYNCHBURG      FAIR      59  38  45 VRB6      29.90S
DANVILLE       FAIR      58  44  60 N8        29.90S
SOUTH BOSTON*  FAIR      61  46  57 N5        29.90S
MARTINSVILLE   FAIR      59  40  50 N6        29.93S
ROANOKE        FAIR      58  39  49 NW9       29.93S
BLACKSBURG     NOT AVBL
DUBLIN*        FAIR      54  41  61 NW6       29.94R
MARION*        FAIR      55  42  61 CALM      29.96R
HILLSVILLE*    FAIR      51  39  64 CALM      29.92R
RICHLANDS*     FAIR      50  17  27 CALM      29.95R
WISE*          FAIR      54  45  71 SE5       29.95S
ABINGDON*      FAIR      57  46  66 SE7       29.93S
$$

MDZ021>025-VAZ099-100-261500-
SOUTHERN MARYLAND AND THE DELMARVA PENINSULA

CITY           SKY/WX    TMP DP  RH WIND       PRES   REMARKS
PATUXENT RIVER PTSUNNY   60  42  51 NW17      29.87S
BAY BRIDGE APT FAIR      55  41  58 NW6       29.87S
LEONARDTOWN    FAIR      57  37  47 W13       29.88S
DOVER          FAIR      56  41  57 W14       29.83R
GEORGETOWN     FAIR      57  41  55 W9G21     29.85R
EASTON         PTSUNNY   57  39  51 NW14      29.90R
CAMBRIDGE      SUNNY     55  41  58 NW10G18   29.87S
SALISBURY      FAIR      57  43  59 NW9       29.85S
TANGIER        FAIR      57  46  67 NW15      29.87F
OCEAN CITY     FAIR      57  44  62 N13       29.85R
WALLOPS ISLAND PTSUNNY   59  43  55 W12       29.86S
ACCOMACK*      FAIR      58  45  60 NW12G18   29.88S
$$

NCZ012>017-030>032-261500-
NORTH CENTRAL AND EASTERN NORTH CAROLINA

CITY           SKY/WX    TMP DP  RH WIND       PRES   REMARKS
ROANOKE RAPIDS FAIR      63  55  77 NE7       29.90R
RALEIGH        PTSUNNY   61  52  72 VRB6      29.90R
ELIZABETH CITY CLOUDY    65  55  70 N9        29.88S
AHOSKIE*       FAIR      63  52  68 N7        29.89S
EDENTON*       CLOUDY    65  59  81 E5        29.89S
CURRITUCK*     NOT AVBL
KILL DEVIL HLS CLOUDY    63  54  73 CALM      29.88S
MANTEO         CLOUDY    64  58  79 NE7       29.89S
CAPE HATTERAS  FAIR      69  60  73 VRB3      29.88S
TARBORO*       NOT AVBL
GOLDSBORO      NOT AVBL
WASHINGTON     FAIR      66  56  71 CALM      29.88F
GREENVILLE     FAIR      64  55  72 NE3       29.90S
NEW BERN       FAIR      67  56  67 CALM      29.89S
WILMINGTON     FAIR      70  55  59 N5        29.88S
$$

VAZ048-261500-
ELSEWHERE

CITY           SKY/WX    TMP DP  RH WIND       PRES   REMARKS
HARRISBURG PA  FAIR      54  39  57 NW14      29.83S
BALTIMORE      FAIR      56  40  55 W12       29.85R
ANNAPOLIS      FAIR      58  39  49 NW12G20   29.86S
ANDREWS AFB    FAIR      56  38  52 W14       29.87S
PHILADELPHIA   FAIR      56  38  50 NW12G21   29.81R
HENDERSON NC   FAIR      58  49  70 NE5       29.90R
GREENSBORO     CLOUDY    59  44  57 NE12      29.90R
ROCKY MOUNT    FAIR      66  55  67 NE9       29.88S
$$

VAZ100-261500-
MARINE

STATION/POSITION TIME  TEMP    WIND        PRES    WAVE   SWELL
                       AIR SEA DIR/SP/G            HT/PER HT/PER
                 (UTC) (F)     (DEG/KT/KT) (MB)    (FT/S) (FT/S)
BRANDYWINE LGT   1342   52     320/ 12/ 16 1010.5R
CAPE MAY NJ      1342   53 53  310/ 12/ 16 1009.7R
LEWES DE         1342   53 53  300/ 12/ 14 1010.2R
15NM E FENWICK I 1350   49 49  300/ 12/ 14 1010.5R   6/11   5/11
OCEAN-CITY-INLET 1342   55 51  330/ 10/ 14 1011.0R
WACHAPREAGUE VA  1342   58 59  300/  4/ 11 1011.5R
GOOSES REEF MD   1400   55     340/  6/  8 1012.5
COVE POINT MD    1342   54     350/ 13/ 16 1011.9F
SOLOMONS ISLAND  1342   55 53  320/ 11/ 16 1011.1F
BISHOPS HEAD MD  1342   54 58  300/ 14/ 18 1011.9R
PINEY POINT MD   1342          330/ 13/ 14   N/A
POTOMAC MD       1400   55 54  310/ 10/ 12 1013.1    1/ 3
CAMBRIDGE MD     1342   56 57              1012.3R
LEWISETTA VA     1342   56 56  340/ 11/ 17 1011.8R
RAPPAHANNOCK LGT 1342          300/ 10/ 11 1012.4R
YORK RVR RNG VA  1342   56     340/ 12/ 13 1012.6R
YORKTOWN VA      1342   57 57  330/  9/ 16 1011.9R
DOMINION TERM VA 1342   59     330/  7/  8 1012.4R
KIPTOPEKE VA     1342      56  340/ 13/ 15   N/A
CAPE HENRY VA    1342   56     330/  6/  8   N/A
WILLOUBY STN VA  1342   58     330/ 11/ 14 1012.3R
S CRANEY ISL VA  1342   59      10/  6/  8 1012.1R
CAPE HENRY BUOY  1400      54                N/A     4/11   2/11
1ST LANDING BUOY 1400   56 54  340/ 12/ 14 1013.6    2/ 9
64NM E OF VA BCH 1350   53 51  290/  6/ 10 1012.2R   8/10   7/10
DUCK PIER NC     1342   59 52   10/  7/  8 1011.5R
44100 DUCK FRF   1315      55                N/A     5/10   3/11
44056 DUCK FRF   1400      55                N/A     4/11   3/11
OREGON INLET NC  1342   63 62   40/  3/  5 1012.0R
HATTERAS NC      1342   65 67  340/  4/  4 1011.6S
DIAMOND SHLS NC  1400   66 70  340/  6/  8 1012.4
$$



USA.gov is the U.S. government's official web portal to all federal, state and local government web resources and services.